Location: Gadern
(49.5873°N, 8.8138°E)
Time: 17:20:18
(UTC+00:00)

BREEZE-M DEB (TANK) - Pass Details

Date: 19 May 2025
Orbit: 281 x 12174 km, 49.5° (Epoch: 16 June)

Event Time Altitude Azimuth Distance (km) Brightness Sun altitude
Rises 20:28:22 0° 264° (W) 11,947 9.6 -10.6°
Reaches altitude 10° 20:40:38 10° 266° (W) 8,631 8.8 -11.9°
Maximum altitude 21:01:59 90° 316° (NW) 1,489 4.4 -13.9°
Drops below altitude 10° 21:07:07 10° 91° (E) 2,350 5.2 -14.4°
Enters shadow 21:07:53 - 91° (E) 2,655 5.5 -14.4°
